651  
ASUS42 KKEY 290410  
RWRKEY  
 
FLORIDA REGIONAL WEATHER ROUNDUP FOR THE FLORIDA KEYS  
NATIONAL WEATHER SERVICE KEY WEST FLORIDA  
1200 AM EDT TUE JUL 29 2014  
   
..SOUTH FLORIDA AND THE KEYS
 
 
 
CITY SKY/WX TMP DP RH WIND PRES REMARKS
 
FORT MYERS CLEAR 81 75 82 W3 30.03S  
SW REGIONAL AP CLEAR 81 74 79 W3 30.03F  
NAPLES CLEAR 84 79 85 W6 30.04S HX 96  
MIAMI PTCLDY 84 73 69 W5 30.05R HX 90  
WEST KENDALL CLEAR 82 75 79 SW6 30.05S  
HOMESTEAD CLEAR 80 75 86 SW5 30.05S  
MARATHON PTCLDY 84 76 76 CALM 30.05S HX 93  
BOCA CHICA NAS PTCLDY 85 75 72 CALM 30.06R HX 93  
KEY WEST INTL CLEAR 85 76 74 CALM 30.07R HX 94  
   
..INTERNATIONAL WEATHER
 
 
 
CITY SKY/WX TMP DP RH WIND PRES REMARKS
 
NASSAU BAHAMAS PTCLDY 84 75 74 S2 30.06S HX 92  
CANCUN MEXICO PTCLDY 82 79 89 E5 30.08S HX 93  
COZUMEL MEXICO PTCLDY 77 77 100 CALM 30.07F  
 
ADJACENT COASTAL WATERS...  
 
STATION/POSITION TIME SKY/WX TEMP WIND PRES WAVE
 
AIR SEA DIR/SP/G HT/PER  
(UTC) (F) (DEG/KT/KT) (MB) (FT/S)  
PULASKI SHOAL LI 0400 85 310/ 2/ 2 1018.3R  
SAND KEY 0400 86 360/ 2/ 3 1017.9R  
SOMBRERO KEY 0300 85 CALM / 1 1018.5R  
LONG KEY 0259 86 92 250/ 3/ 5 1018.4S  
MOLASSES REEF 0300 85 87 220/ 9/ 10 1017.6S  
FOWEY ROCKS 0300 86 86 260/ 15/ 16 1017.8R  
BUOY 42080 NOT AVBL  
 

 
 
CLICK HERE TO GO TO PREVIOUS BULLETINS.

The Nexlab FL Page Main Text Page